QPF
0.00 0.00 0.00 0.00 0.00 0.00 0.00 0.00 0.00 0.00 0.00 0.00 0.00 0.00 0.01 0.01 0.01 0.01 0.01 0.02 0.02 0.02 0.02 0.02 0.01 0.01 0.02 0.02 0.02 0.03 0.03 0.04 0.03 0.01 0.00 0.00 0.00 0.01 0.01 0.01 0.01 0.01 0.01
0.00 0.00 0.00 0.00 0.00 0.00 0.00 0.00 0.00 0.00 0.00 0.00 0.00 0.00 0.00 0.00 0.01 0.01 0.01 0.01 0.02 0.02 0.02 0.02 0.02 0.02 0.02 0.02 0.03 0.03 0.03 0.04 0.04 0.02 0.01 0.01 0.01 0.01 0.02 0.02 0.02 0.02 0.02
0.00 0.00 0.00 0.00 0.00 0.00 0.00 0.00 0.00 0.00 0.00 0.00 0.00 0.00 0.00 0.00 0.00 0.01 0.01 0.01 0.01 0.02 0.02 0.02 0.02 0.02 0.03 0.03 0.03 0.03 0.03 0.03 0.03 0.03 0.02 0.01 0.01 0.02 0.02 0.03 0.03 0.02 0.02
0.00 0.00 0.00 0.00 0.00 0.00 0.00 0.00 0.00 0.00 0.00 0.00 0.00 0.00 0.00 0.00 0.00 0.00 0.01 0.01 0.01 0.02 0.02 0.02 0.02 0.02 0.02 0.03 0.03 0.03 0.04 0.04 0.04 0.05 0.04 0.03 0.03 0.03 0.04 0.05 0.04 0.03 0.03
0.00 0.00 0.00 0.00 0.00 0.00 0.00 0.00 0.00 0.00 0.00 0.00 0.00 0.00 0.00 0.00 0.00 0.00 0.01 0.01 0.01 0.01 0.02 0.02 0.02 0.02 0.03 0.03 0.04 0.04 0.05 0.06 0.06 0.06 0.06 0.05 0.04 0.04 0.04 0.04 0.05 0.05 0.05
0.00 0.00 0.00 0.00 0.00 0.00 0.00 0.00 0.00 0.00 0.00 0.00 0.00 0.00 0.00 0.00 0.00 0.01 0.00 0.01 0.01 0.01 0.02 0.02 0.02 0.03 0.03 0.04 0.04 0.05 0.06 0.07 0.08 0.08 0.07 0.06 0.05 0.05 0.05 0.06 0.07 0.07 0.07
0.00 0.00 0.00 0.00 0.00 0.00 0.00 0.00 0.00 0.00 0.00 0.00 0.00 0.00 0.00 0.00 0.01 0.01 0.01 0.01 0.01 0.01 0.02 0.02 0.02 0.02 0.03 0.04 0.04 0.05 0.06 0.07 0.08 0.09 0.09 0.07 0.06 0.05 0.07 0.08 0.08 0.08 0.06
0.00 0.00 0.00 0.00 0.00 0.00 0.01 0.01 0.01 0.01 0.01 0.01 0.01 0.00 0.00 0.00 0.01 0.01 0.01 0.01 0.01 0.02 0.02 0.02 0.02 0.02 0.02 0.03 0.03 0.04 0.05 0.05 0.06 0.07 0.08 0.07 0.07 0.06 0.07 0.08 0.09 0.10 0.09
0.00 0.00 0.00 0.00 0.00 0.00 0.00 0.01 0.01 0.01 0.01 0.01 0.01 0.01 0.01 0.01 0.01 0.01 0.01 0.01 0.02 0.02 0.02 0.02 0.02 0.02 0.02 0.03 0.03 0.03 0.04 0.05 0.06 0.07 0.08 0.09 0.09 0.10 0.09 0.10 0.11 0.12 0.11
0.00 0.00 0.00 0.01 0.01 0.00 0.00 0.00 0.00 0.01 0.01 0.01 0.01 0.01 0.01 0.02 0.02 0.02 0.02 0.02 0.02 0.02 0.02 0.02 0.02 0.02 0.03 0.03 0.03 0.03 0.05 0.05 0.06 0.06 0.07 0.08 0.08 0.09 0.11 0.10 0.11 0.13 0.13
0.01 0.00 0.00 0.01 0.01 0.01 0.01 0.01 0.01 0.01 0.01 0.01 0.01 0.01 0.01 0.01 0.02 0.03 0.03 0.03 0.03 0.03 0.03 0.03 0.03 0.04 0.03 0.03 0.03 0.03 0.04 0.04 0.04 0.05 0.06 0.07 0.07 0.07 0.08 0.08 0.09 0.12 0.13
0.00 0.00 0.00 0.01 0.01 0.01 0.01 0.01 0.01 0.01 0.01 0.01 0.01 0.01 0.01 0.01 0.01 0.02 0.02 0.03 0.03 0.02 0.03 0.03 0.04 0.04 0.04 0.05 0.05 0.06 0.06 0.06 0.05 0.06 0.06 0.06 0.06 0.06 0.07 0.08 0.09 0.10 0.11
0.01 0.01 0.01 0.01 0.01 0.01 0.01 0.01 0.02 0.01 0.02 0.02 0.02 0.01 0.01 0.01 0.01 0.01 0.01 0.01 0.02 0.02 0.03 0.03 0.04 0.04 0.04 0.04 0.05 0.06 0.06 0.06 0.07 0.08 0.08 0.07 0.07 0.07 0.08 0.09 0.10 0.10 0.11
0.01 0.01 0.01 0.01 0.01 0.01 0.01 0.01 0.01 0.01 0.01 0.01 0.01 0.01 0.01 0.01 0.01 0.01 0.01 0.01 0.01 0.01 0.01 0.02 0.02 0.03 0.03 0.04 0.04 0.05 0.05 0.05 0.05 0.05 0.06 0.06 0.06 0.08 0.09 0.10 0.10 0.09 0.10
0.02 0.02 0.01 0.01 0.01 0.01 0.01 0.01 0.01 0.01 0.01 0.01 0.01 0.01 0.01 0.01 0.01 0.01 0.01 0.01 0.01 0.01 0.01 0.01 0.01 0.02 0.02 0.02 0.03 0.04 0.04 0.05 0.05 0.05 0.06 0.06 0.06 0.07 0.08 0.08 0.08 0.08 0.09
0.01 0.01 0.01 0.01 0.01 0.01 0.01 0.01 0.01 0.01 0.01 0.01 0.01 0.01 0.01 0.01 0.01 0.01 0.01 0.01 0.01 0.01 0.01 0.01 0.01 0.01 0.02 0.02 0.03 0.03 0.04 0.04 0.05 0.05 0.06 0.07 0.08 0.08 0.08 0.09 0.09 0.09 0.08
0.01 0.01 0.01 0.01 0.01 0.01 0.01 0.01 0.01 0.01 0.01 0.01 0.01 0.01 0.01 0.01 0.01 0.00 0.00 0.01 0.01 0.01 0.01 0.02 0.02 0.02 0.03 0.03 0.03 0.03 0.04 0.04 0.05 0.05 0.06 0.06 0.06 0.07 0.08 0.08 0.09 0.09 0.08
0.02 0.02 0.01 0.01 0.01 0.01 0.02 0.02 0.02 0.02 0.02 0.01 0.01 0.01 0.01 0.01 0.01 0.01 0.01 0.01 0.01 0.01 0.01 0.02 0.02 0.03 0.03 0.04 0.04 0.04 0.04 0.04 0.04 0.05 0.05 0.05 0.05 0.06 0.07 0.08 0.08 0.09 0.09
0.02 0.02 0.02 0.02 0.02 0.02 0.03 0.03 0.03 0.02 0.02 0.02 0.01 0.01 0.01 0.01 0.01 0.01 0.01 0.01 0.01 0.01 0.01 0.01 0.02 0.02 0.03 0.03 0.04 0.04 0.04 0.03 0.03 0.03 0.04 0.04 0.05 0.06 0.07 0.07 0.07 0.08 0.09
0.03 0.03 0.03 0.03 0.03 0.03 0.03 0.03 0.02 0.02 0.02 0.02 0.01 0.01 0.01 0.01 0.01 0.01 0.01 0.01 0.01 0.01 0.01 0.01 0.02 0.02 0.02 0.03 0.03 0.03 0.04 0.04 0.04 0.03 0.03 0.03 0.04 0.05 0.05 0.05 0.06 0.07 0.07
0.03 0.03 0.03 0.03 0.03 0.03 0.02 0.02 0.02 0.02 0.02 0.01 0.01 0.01 0.01 0.01 0.01 0.00 0.01 0.01 0.01 0.01 0.01 0.01 0.01 0.02 0.02 0.02 0.03 0.03 0.03 0.03 0.03 0.04 0.04 0.04 0.04 0.04 0.05 0.05 0.06 0.07 0.08
0.03 0.03 0.03 0.03 0.03 0.02 0.02 0.02 0.02 0.01 0.01 0.01 0.01 0.01 0.01 0.01 0.00 0.00 0.00 0.01 0.01 0.01 0.01 0.01 0.02 0.02 0.02 0.02 0.02 0.02 0.02 0.02 0.02 0.03 0.03 0.03 0.04 0.04 0.05 0.05 0.06 0.07 0.08
0.02 0.02 0.02 0.02 0.02 0.02 0.02 0.01 0.01 0.01 0.01 0.01 0.01 0.01 0.00 0.00 0.00 0.00 0.01 0.01 0.01 0.01 0.01 0.01 0.02 0.02 0.02 0.02 0.02 0.02 0.02 0.03 0.03 0.03 0.04 0.04 0.04 0.04 0.04 0.05 0.06 0.07 0.08
0.01 0.01 0.01 0.01 0.01 0.01 0.01 0.01 0.01 0.01 0.01 0.01 0.01 0.00 0.00 0.00 0.00 0.01 0.01 0.01 0.01 0.01 0.01 0.01 0.01 0.01 0.01 0.01 0.01 0.02 0.02 0.02 0.03 0.03 0.04 0.04 0.04 0.04 0.05 0.05 0.06 0.06 0.07
0.01 0.01 0.01 0.00 0.00 0.00 0.00 0.00 0.00 0.00 0.00 0.00 0.00 0.00 0.00 0.00 0.00 0.00 0.00 0.01 0.01 0.01 0.01 0.01 0.01 0.01 0.01 0.01 0.01 0.01 0.02 0.02 0.02 0.03 0.03 0.04 0.04 0.05 0.05 0.06 0.06 0.06 0.07
0.01 0.00 0.00 0.00 0.00 0.00 0.00 0.00 0.00 0.00 0.00 0.00 0.00 0.00 0.00 0.00 0.01 0.01 0.01 0.01 0.01 0.01 0.01 0.01 0.01 0.01 0.01 0.01 0.01 0.02 0.02 0.02 0.02 0.03 0.03 0.03 0.04 0.04 0.04 0.05 0.05 0.06 0.06
MSLP
1005.18 1005.41 1005.65 1005.89 1006.17 1006.49 1006.89 1007.38 1007.96 1008.61 1009.31 1010.02 1010.71 1011.33 1011.87 1012.34 1012.73 1013.07 1013.39 1013.71 1014.03 1014.36 1014.69 1015.00 1015.25 1015.43 1015.52 1015.51 1015.41 1015.24 1015.00 1014.73 1014.45 1014.17 1013.91 1013.67 1013.44 1013.23 1013.03 1012.85 1012.67 1012.51 1012.36
1004.55 1004.73 1004.93 1005.15 1005.43 1005.78 1006.22 1006.76 1007.39 1008.09 1008.82 1009.55 1010.24 1010.85 1011.38 1011.82 1012.19 1012.51 1012.82 1013.14 1013.47 1013.83 1014.18 1014.52 1014.80 1015.01 1015.13 1015.15 1015.07 1014.91 1014.69 1014.44 1014.17 1013.90 1013.64 1013.38 1013.13 1012.87 1012.61 1012.34 1012.07 1011.79 1011.53
1004.26 1004.42 1004.59 1004.81 1005.10 1005.48 1005.96 1006.54 1007.22 1007.96 1008.72 1009.46 1010.13 1010.73 1011.22 1011.63 1011.97 1012.28 1012.58 1012.89 1013.24 1013.61 1013.98 1014.34 1014.65 1014.88 1015.02 1015.05 1014.98 1014.84 1014.64 1014.40 1014.14 1013.88 1013.62 1013.35 1013.08 1012.78 1012.46 1012.10 1011.73 1011.33 1010.93
1004.30 1004.46 1004.63 1004.86 1005.17 1005.58 1006.10 1006.73 1007.45 1008.21 1008.99 1009.72 1010.39 1010.95 1011.42 1011.79 1012.10 1012.38 1012.67 1012.98 1013.32 1013.70 1014.09 1014.46 1014.78 1015.02 1015.16 1015.20 1015.14 1015.00 1014.81 1014.58 1014.33 1014.08 1013.82 1013.55 1013.26 1012.93 1012.55 1012.12 1011.65 1011.13 1010.58
1004.58 1004.77 1004.97 1005.23 1005.57 1006.02 1006.58 1007.25 1007.99 1008.78 1009.56 1010.29 1010.93 1011.47 1011.90 1012.24 1012.52 1012.77 1013.04 1013.33 1013.67 1014.05 1014.43 1014.80 1015.12 1015.35 1015.49 1015.52 1015.46 1015.31 1015.12 1014.89 1014.64 1014.39 1014.14 1013.87 1013.57 1013.22 1012.81 1012.32 1011.77 1011.14 1010.47
1004.98 1005.23 1005.49 1005.80 1006.18 1006.67 1007.27 1007.97 1008.74 1009.54 1010.32 1011.04 1011.66 1012.16 1012.56 1012.86 1013.11 1013.33 1013.57 1013.85 1014.17 1014.52 1014.89 1015.25 1015.54 1015.76 1015.88 1015.90 1015.82 1015.66 1015.45 1015.21 1014.96 1014.71 1014.46 1014.19 1013.89 1013.53 1013.10 1012.58 1011.97 1011.27 1010.50
1005.38 1005.72 1006.06 1006.42 1006.86 1007.39 1008.02 1008.74 1009.53 1010.34 1011.11 1011.82 1012.41 1012.89 1013.25 1013.52 1013.74 1013.93 1014.13 1014.38 1014.67 1015.00 1015.34 1015.66 1015.93 1016.12 1016.22 1016.20 1016.10 1015.91 1015.68 1015.42 1015.16 1014.90 1014.64 1014.38 1014.07 1013.72 1013.28 1012.75 1012.11 1011.37 1010.53
1005.68 1006.13 1006.55 1006.98 1007.46 1008.03 1008.69 1009.43 1010.22 1011.03 1011.79 1012.48 1013.06 1013.51 1013.84 1014.08 1014.26 1014.42 1014.59 1014.80 1015.05 1015.34 1015.65 1015.93 1016.17 1016.33 1016.39 1016.35 1016.21 1016.00 1015.75 1015.46 1015.18 1014.89 1014.62 1014.34 1014.04 1013.68 1013.25 1012.72 1012.08 1011.32 1010.45
1005.86 1006.40 1006.90 1007.39 1007.92 1008.51 1009.19 1009.94 1010.72 1011.52 1012.27 1012.94 1013.50 1013.93 1014.24 1014.45 1014.61 1014.73 1014.87 1015.04 1015.25 1015.50 1015.76 1016.01 1016.21 1016.34 1016.38 1016.31 1016.15 1015.91 1015.63 1015.31 1014.99 1014.68 1014.38 1014.07 1013.75 1013.38 1012.95 1012.42 1011.79 1011.03 1010.16
1005.93 1006.55 1007.11 1007.64 1008.20 1008.81 1009.49 1010.23 1011.01 1011.78 1012.52 1013.17 1013.71 1014.12 1014.42 1014.61 1014.75 1014.85 1014.96 1015.10 1015.27 1015.49 1015.71 1015.93 1016.10 1016.20 1016.22 1016.13 1015.95 1015.69 1015.38 1015.03 1014.67 1014.31 1013.97 1013.62 1013.26 1012.87 1012.42 1011.89 1011.25 1010.50 1009.64
1005.98 1006.65 1007.24 1007.79 1008.36 1008.97 1009.64 1010.36 1011.12 1011.87 1012.58 1013.21 1013.73 1014.13 1014.42 1014.61 1014.73 1014.82 1014.92 1015.03 1015.18 1015.36 1015.56 1015.75 1015.90 1015.99 1015.99 1015.89 1015.70 1015.43 1015.09 1014.71 1014.31 1013.90 1013.50 1013.10 1012.69 1012.25 1011.76 1011.20 1010.55 1009.80 1008.94
1006.10 1006.77 1007.37 1007.92 1008.48 1009.07 1009.72 1010.41 1011.14 1011.86 1012.54 1013.15 1013.65 1014.05 1014.33 1014.52 1014.65 1014.74 1014.82 1014.93 1015.06 1015.23 1015.41 1015.58 1015.72 1015.80 1015.80 1015.70 1015.51 1015.23 1014.87 1014.47 1014.02 1013.57 1013.10 1012.63 1012.15 1011.64 1011.09 1010.48 1009.80 1009.02 1008.14
1006.37 1007.02 1007.58 1008.12 1008.65 1009.22 1009.83 1010.49 1011.17 1011.86 1012.50 1013.09 1013.58 1013.97 1014.25 1014.45 1014.59 1014.69 1014.78 1014.89 1015.02 1015.18 1015.35 1015.51 1015.64 1015.72 1015.72 1015.62 1015.44 1015.15 1014.79 1014.37 1013.89 1013.39 1012.86 1012.32 1011.76 1011.17 1010.54 1009.86 1009.10 1008.26 1007.34
1006.83 1007.42 1007.95 1008.45 1008.95 1009.48 1010.05 1010.67 1011.31 1011.95 1012.56 1013.12 1013.59 1013.97 1014.26 1014.47 1014.62 1014.74 1014.85 1014.97 1015.10 1015.26 1015.43 1015.59 1015.71 1015.79 1015.79 1015.70 1015.52 1015.24 1014.88 1014.44 1013.95 1013.41 1012.83 1012.22 1011.58 1010.90 1010.17 1009.38 1008.53 1007.60 1006.59
1007.46 1007.99 1008.47 1008.93 1009.40 1009.89 1010.43 1011.00 1011.60 1012.19 1012.76 1013.28 1013.72 1014.09 1014.38 1014.60 1014.78 1014.91 1015.04 1015.18 1015.33 1015.49 1015.65 1015.80 1015.92 1015.99 1015.99 1015.90 1015.72 1015.46 1015.10 1014.66 1014.16 1013.60 1012.98 1012.31 1011.59 1010.81 1009.98 1009.07 1008.09 1007.03 1005.89
1008.21 1008.69 1009.12 1009.55 1009.99 1010.45 1010.95 1011.48 1012.03 1012.57 1013.09 1013.56 1013.98 1014.32 1014.61 1014.84 1015.02 1015.18 1015.33 1015.49 1015.64 1015.81 1015.97 1016.11 1016.21 1016.27 1016.26 1016.17 1015.99 1015.73 1015.38 1014.95 1014.45 1013.87 1013.23 1012.51 1011.72 1010.85 1009.89 1008.85 1007.71 1006.49 1005.18
1009.00 1009.43 1009.83 1010.24 1010.66 1011.10 1011.57 1012.05 1012.54 1013.03 1013.49 1013.91 1014.28 1014.60 1014.87 1015.10 1015.30 1015.48 1015.65 1015.82 1015.99 1016.15 1016.30 1016.43 1016.51 1016.55 1016.52 1016.42 1016.24 1015.98 1015.64 1015.22 1014.72 1014.14 1013.46 1012.70 1011.84 1010.87 1009.78 1008.59 1007.28 1005.87 1004.37
1009.75 1010.15 1010.54 1010.94 1011.34 1011.76 1012.20 1012.64 1013.07 1013.49 1013.89 1014.25 1014.57 1014.86 1015.11 1015.33 1015.54 1015.74 1015.93 1016.11 1016.29 1016.45 1016.59 1016.70 1016.76 1016.77 1016.71 1016.59 1016.39 1016.13 1015.79 1015.37 1014.87 1014.28 1013.58 1012.77 1011.83 1010.75 1009.53 1008.17 1006.67 1005.06 1003.34
1010.43 1010.81 1011.19 1011.59 1011.98 1012.38 1012.78 1013.17 1013.54 1013.89 1014.21 1014.50 1014.77 1015.02 1015.25 1015.47 1015.69 1015.90 1016.11 1016.31 1016.50 1016.66 1016.79 1016.87 1016.91 1016.89 1016.80 1016.65 1016.43 1016.15 1015.80 1015.37 1014.86 1014.24 1013.51 1012.63 1011.61 1010.41 1009.05 1007.51 1005.82 1003.99 1002.06
1011.02 1011.39 1011.78 1012.16 1012.54 1012.91 1013.27 1013.59 1013.90 1014.17 1014.41 1014.64 1014.86 1015.06 1015.27 1015.49 1015.71 1015.94 1016.18 1016.40 1016.60 1016.77 1016.89 1016.96 1016.96 1016.90 1016.78 1016.60 1016.35 1016.04 1015.66 1015.20 1014.66 1014.00 1013.21 1012.26 1011.14 1009.82 1008.31 1006.60 1004.72 1002.69 1000.55
1011.55 1011.91 1012.29 1012.66 1013.01 1013.34 1013.63 1013.89 1014.11 1014.31 1014.48 1014.64 1014.81 1014.98 1015.18 1015.39 1015.63 1015.89 1016.14 1016.39 1016.61 1016.78 1016.90 1016.95 1016.93 1016.84 1016.68 1016.45 1016.16 1015.81 1015.39 1014.90 1014.30 1013.59 1012.73 1011.69 1010.46 1009.02 1007.36 1005.50 1003.45 1001.25 998.95
1012.04 1012.39 1012.74 1013.07 1013.38 1013.65 1013.88 1014.06 1014.21 1014.32 1014.42 1014.53 1014.65 1014.80 1014.99 1015.22 1015.48 1015.76 1016.04 1016.32 1016.55 1016.73 1016.85 1016.89 1016.84 1016.72 1016.51 1016.24 1015.91 1015.50 1015.03 1014.48 1013.82 1013.04 1012.10 1010.98 1009.64 1008.09 1006.31 1004.32 1002.15 999.83 997.42
1012.51 1012.83 1013.14 1013.42 1013.67 1013.87 1014.02 1014.12 1014.18 1014.23 1014.27 1014.34 1014.43 1014.57 1014.76 1015.01 1015.29 1015.60 1015.91 1016.20 1016.45 1016.64 1016.75 1016.77 1016.69 1016.53 1016.29 1015.97 1015.58 1015.13 1014.60 1013.98 1013.26 1012.41 1011.40 1010.20 1008.79 1007.16 1005.31 1003.24 1001.01 998.64 996.20
1012.95 1013.22 1013.47 1013.69 1013.86 1013.99 1014.06 1014.08 1014.08 1014.07 1014.07 1014.11 1014.19 1014.33 1014.54 1014.80 1015.10 1015.43 1015.76 1016.07 1016.32 1016.50 1016.59 1016.59 1016.48 1016.28 1016.00 1015.63 1015.19 1014.68 1014.10 1013.42 1012.65 1011.75 1010.69 1009.44 1007.99 1006.34 1004.47 1002.40 1000.18 997.84 995.45
1013.32 1013.53 1013.72 1013.87 1013.96 1014.01 1014.01 1013.97 1013.92 1013.87 1013.85 1013.87 1013.96 1014.11 1014.33 1014.61 1014.93 1015.27 1015.60 1015.90 1016.14 1016.30 1016.36 1016.32 1016.18 1015.93 1015.60 1015.18 1014.70 1014.14 1013.51 1012.80 1012.00 1011.07 1009.99 1008.75 1007.32 1005.69 1003.88 1001.89 999.76 997.54 995.29
1013.56 1013.72 1013.84 1013.91 1013.94 1013.92 1013.87 1013.79 1013.71 1013.65 1013.63 1013.66 1013.75 1013.92 1014.15 1014.44 1014.76 1015.10 1015.42 1015.69 1015.89 1016.01 1016.02 1015.93 1015.74 1015.45 1015.07 1014.61 1014.08 1013.49 1012.84 1012.11 1011.30 1010.38 1009.33 1008.13 1006.78 1005.25 1003.57 1001.73 999.78 997.75 995.70
Thickness
5606 5607 5608 5608 5609 5609 5609 5609 5608 5607 5606 5604 5603 5601 5599 5597 5595 5593 5591 5590 5589 5588 5586 5585 5584 5582 5581 5579 5577 5576 5575 5573 5577 5588 5585 5584 5580 5578 5576 5573 5572 5571 5571
5589 5590 5591 5592 5593 5593 5593 5593 5593 5592 5592 5590 5589 5587 5586 5584 5582 5580 5578 5577 5576 5575 5574 5573 5572 5571 5570 5569 5567 5567 5565 5564 5563 5570 5573 5571 5569 5567 5566 5565 5563 5562 5561
5572 5573 5575 5576 5576 5577 5577 5576 5576 5576 5575 5574 5573 5572 5571 5569 5567 5565 5564 5563 5562 5561 5560 5559 5559 5557 5557 5557 5556 5555 5555 5553 5552 5553 5559 5558 5557 5555 5553 5553 5553 5552 5551
5554 5556 5557 5558 5559 5559 5559 5559 5559 5558 5558 5557 5556 5556 5554 5553 5551 5549 5548 5547 5546 5545 5544 5544 5544 5542 5542 5542 5542 5542 5541 5540 5540 5540 5543 5545 5544 5542 5538 5539 5540 5541 5541
5535 5537 5539 5539 5540 5540 5540 5540 5540 5540 5539 5539 5538 5538 5536 5535 5533 5531 5530 5530 5530 5530 5529 5529 5529 5527 5525 5524 5524 5525 5525 5525 5525 5525 5528 5530 5531 5527 5525 5525 5524 5528 5529
5517 5519 5520 5520 5521 5521 5522 5521 5521 5521 5521 5520 5519 5519 5518 5517 5515 5513 5512 5513 5513 5513 5513 5513 5513 5511 5510 5509 5508 5507 5506 5507 5509 5509 5512 5514 5516 5514 5511 5507 5506 5506 5513
5499 5500 5501 5502 5502 5502 5502 5503 5503 5503 5502 5501 5501 5500 5500 5499 5496 5496 5494 5495 5496 5496 5495 5495 5495 5495 5493 5494 5495 5494 5492 5490 5488 5490 5494 5499 5498 5497 5493 5492 5490 5491 5496
5481 5482 5482 5483 5484 5483 5483 5484 5484 5483 5483 5483 5482 5482 5481 5480 5479 5478 5478 5479 5479 5479 5478 5477 5477 5477 5476 5475 5477 5479 5480 5478 5475 5473 5474 5478 5477 5476 5474 5473 5474 5474 5478
5464 5464 5464 5465 5465 5465 5466 5465 5465 5464 5464 5463 5462 5462 5462 5462 5461 5460 5460 5461 5462 5461 5460 5459 5458 5458 5458 5456 5457 5460 5462 5463 5460 5457 5456 5457 5458 5458 5456 5455 5455 5453 5460
5447 5446 5445 5446 5446 5447 5447 5447 5446 5446 5445 5444 5442 5442 5442 5442 5442 5442 5441 5442 5443 5443 5442 5441 5439 5438 5438 5436 5436 5439 5442 5444 5442 5443 5442 5443 5443 5443 5442 5439 5439 5438 5440
5428 5426 5426 5427 5427 5428 5427 5427 5426 5426 5425 5424 5423 5423 5424 5423 5423 5423 5421 5421 5421 5422 5423 5422 5421 5419 5418 5417 5416 5418 5420 5420 5421 5422 5424 5426 5427 5427 5427 5425 5424 5422 5423
5409 5408 5407 5407 5408 5408 5408 5408 5407 5407 5406 5406 5405 5405 5405 5404 5403 5403 5402 5401 5400 5401 5402 5402 5401 5399 5398 5398 5398 5399 5399 5399 5400 5403 5405 5408 5409 5411 5410 5409 5408 5407 5406
5390 5389 5389 5388 5389 5389 5390 5390 5389 5389 5389 5388 5387 5387 5386 5385 5384 5383 5383 5382 5381 5380 5381 5381 5381 5380 5380 5380 5380 5379 5379 5379 5380 5382 5386 5389 5389 5390 5391 5391 5392 5391 5392
5371 5371 5371 5371 5371 5370 5371 5371 5370 5370 5370 5369 5368 5367 5367 5367 5366 5365 5364 5363 5362 5361 5361 5361 5361 5361 5360 5361 5360 5360 5359 5358 5359 5361 5363 5366 5368 5369 5371 5371 5372 5374 5375
5354 5354 5354 5354 5353 5352 5351 5351 5350 5351 5350 5350 5349 5348 5347 5348 5347 5345 5344 5344 5343 5342 5342 5342 5342 5343 5344 5344 5342 5341 5340 5340 5340 5341 5342 5345 5347 5348 5350 5350 5350 5352 5353
5338 5337 5337 5336 5335 5334 5333 5332 5331 5331 5330 5329 5329 5328 5328 5327 5327 5326 5325 5324 5323 5323 5322 5322 5323 5323 5322 5322 5321 5322 5321 5321 5321 5321 5323 5324 5326 5328 5330 5330 5330 5331 5333
5320 5319 5318 5317 5316 5316 5315 5315 5314 5312 5311 5310 5309 5308 5308 5307 5307 5306 5306 5305 5303 5302 5301 5301 5301 5301 5300 5300 5300 5301 5302 5302 5301 5302 5304 5305 5305 5307 5308 5310 5311 5312 5314
5300 5299 5298 5297 5296 5295 5294 5294 5293 5293 5292 5291 5289 5288 5287 5287 5287 5286 5285 5284 5283 5282 5280 5279 5279 5279 5280 5280 5280 5281 5282 5283 5283 5284 5285 5286 5286 5287 5289 5291 5292 5293 5296
5281 5280 5278 5277 5276 5275 5274 5273 5272 5271 5271 5270 5269 5269 5267 5266 5266 5265 5264 5262 5262 5261 5260 5259 5259 5259 5259 5260 5260 5261 5262 5263 5264 5264 5266 5268 5268 5269 5271 5272 5274 5276 5278
5262 5260 5258 5258 5257 5256 5255 5254 5253 5252 5250 5250 5249 5248 5246 5245 5245 5245 5243 5241 5240 5240 5239 5239 5239 5239 5240 5240 5241 5242 5243 5245 5246 5247 5248 5250 5251 5251 5253 5255 5257 5259 5262
5244 5242 5239 5238 5238 5237 5236 5234 5232 5231 5230 5229 5228 5227 5226 5224 5224 5223 5222 5221 5220 5220 5219 5220 5220 5221 5221 5222 5223 5224 5226 5228 5228 5230 5232 5233 5234 5236 5237 5239 5242 5244 5247
5226 5224 5222 5220 5219 5218 5217 5215 5214 5212 5211 5209 5209 5207 5206 5204 5204 5204 5203 5202 5201 5201 5201 5201 5203 5204 5204 5204 5206 5207 5210 5211 5213 5214 5216 5217 5218 5220 5223 5226 5228 5231 5232
5210 5208 5206 5203 5202 5200 5198 5197 5195 5193 5192 5191 5190 5189 5187 5186 5186 5186 5186 5185 5185 5185 5185 5185 5186 5188 5188 5189 5190 5192 5194 5196 5197 5198 5199 5202 5204 5207 5209 5212 5215 5217 5219
5193 5191 5190 5188 5185 5184 5182 5181 5179 5177 5175 5174 5173 5172 5171 5171 5171 5171 5171 5171 5171 5171 5170 5170 5171 5173 5174 5175 5176 5178 5180 5182 5183 5184 5185 5187 5190 5192 5195 5198 5201 5203 5205
5176 5174 5173 5171 5169 5168 5166 5165 5164 5162 5161 5160 5159 5158 5157 5156 5156 5157 5157 5157 5157 5157 5157 5157 5158 5159 5161 5162 5164 5166 5168 5169 5170 5171 5172 5174 5177 5179 5182 5184 5187 5189 5191
5160 5158 5156 5155 5153 5152 5151 5150 5150 5148 5147 5146 5145 5144 5143 5143 5143 5143 5143 5143 5144 5144 5145 5146 5146 5147 5148 5150 5152 5154 5156 5157 5159 5160 5161 5163 5165 5167 5169 5171 5174 5176 5177